[[{"header":{"parameterUnit":"m.s-1","parameterCategory":2,"la1":30.2991,"la2":30.254,"lo1":-89.0895,"lo2":-89.0444,"dy":0.0017,"dx":0.0017,"nx":28,"ny":28,"refTime":"2025-03-14T21:00:00:Z","depth":"0","parameterNumber":2,"parameterNumberName":"U-component_of_CURRENTS"},"data":[0,0,0,0,0,0,0,0,0,0,0,0,0,0,0,0,0,0,0,0,0,0,0,0,0,0,0,0,0,0,0,0,0,0,0,0,0,0,0,0,0,0,0,0,0,0,0,0,0,0,0,0,0,0,0,0,0,0,0.3296,0.3296,0,0.3281,0.3281,0.328,0.3245,0.3245,0.3244,0.3244,0.3186,0.3185,0.3183,0,0,0,0,0,0,0,0,0,0,0,0,0,0.3285,0.3285,0.3296,0.3296,0.3296,0.3281,0.3281,0.328,0.3245,0.3245,0.3244,0.3244,0.3186,0.3185,0.3183,0,0,0,0,0,0,0,0,0,0,0,0,0,0.3279,0.3285,0.3296,0.328,0.3278,0.3281,0.3281,0.328,0.3245,0.3245,0.3244,0.3243,0.3186,0.3185,0.3183,0.3185,0,0,0.3178,0.3177,0,0,0,0,0,0,0,0,0.3279,0.3279,0.3282,0.3281,0.3279,0.3267,0.3256,0.3247,0.3245,0.3254,0.3244,0.3243,0.3212,0.3208,0.3202,0.3182,0.3179,0.3178,0.3177,0.3176,0.3175,0,0,0,0,0,0,0,0.328,0.3279,0.3287,0.3282,0.3281,0.327,0.3268,0.3254,0.3233,0.3253,0.3252,0.3256,0.321,0.3204,0.32,0.3179,0.3178,0.3176,0.3175,0.3174,0.3193,0.3194,0,0,0,0,0,0,0.329,0.328,0.3287,0.3287,0.3282,0.3271,0.3269,0.3269,0.3234,0.323,0.3256,0.3254,0.3207,0.3203,0.3198,0.3209,0.3176,0.3174,0.3173,0.3191,0.3193,0.3195,0,0,0,0,0,0,0.329,0.329,0.3288,0.3286,0.3285,0.3272,0.3273,0.3269,0.3266,0.3238,0.3231,0.3258,0.3207,0.3201,0.3195,0.3206,0.3173,0.3172,0.3189,0.3192,0.3194,0.3223,0,0,0,0,0,0,0.3289,0.329,0.3293,0.3286,0.3286,0.3296,0.3274,0.3269,0.3271,0.3268,0.3237,0.3231,0.3206,0.3198,0.3193,0.3203,0.317,0.3187,0.319,0.3193,0.322,0.3226,0.3231,0,0,0,0,0,0.3289,0.3292,0.3293,0.3294,0.329,0.3297,0.3295,0.3282,0.3272,0.3275,0.3258,0.3232,0.3213,0.3197,0.3192,0.3201,0.3186,0.319,0.3193,0.3218,0.3225,0.3231,0,0,0,0,0,0,0.3284,0.329,0.329,0.3293,0.33,0.3292,0.3294,0.3289,0.3278,0.3274,0.3243,0.3236,0.324,0.3224,0.3207,0.322,0.3199,0.3201,0.322,0.3226,0.3232,0.3225,0.3169,0,0,0,0,0,0.3288,0.3294,0.33,0.3304,0.3309,0.3305,0.3306,0.3302,0.3293,0.3288,0.3267,0.3254,0.3251,0.324,0.3234,0.3232,0.3237,0.3241,0.3246,0.3251,0.3244,0.3269,0.3276,0.3206,0.3206,0.3206,0,0,0.3287,0.3293,0.3294,0.3305,0.3306,0.3311,0.3303,0.331,0.3311,0.3283,0.3275,0.3273,0.3258,0.326,0.3261,0.3244,0.3279,0.3255,0.3258,0.325,0.3273,0.328,0.3286,0.3208,0.3208,0.3208,0,0,0.3285,0.3295,0.3297,0.331,0.3323,0.3321,0.3328,0.3329,0.3324,0.3326,0.3313,0.3317,0.3302,0.3294,0.3288,0.3323,0.3313,0.333,0.3338,0.3363,0.3368,0.3372,0.3408,0.3415,0.3324,0.3324,0.3324,0,0.3283,0.3283,0.33,0.3311,0.3311,0.3328,0.3326,0.3335,0.3333,0.3331,0.3328,0.3329,0.3316,0.332,0.3333,0.3332,0.3351,0.3308,0.3368,0.3372,0.3377,0.3411,0.3419,0.3326,0.3326,0.3326,0.3326,0,0.3274,0.3287,0.3293,0.3306,0.3314,0.332,0.3336,0.3349,0.3349,0.3351,0.3365,0.336,0.3357,0.3365,0.3353,0.3381,0.3388,0.3377,0.3345,0.3385,0.342,0.3427,0.3329,0.3328,0.3328,0.3327,0,0,0.3213,0.3273,0.3268,0.3264,0.3308,0.3292,0.333,0.3339,0.3342,0.3365,0.3366,0.338,0.3387,0.3383,0.3383,0.3401,0.3454,0.3401,0.3402,0.3426,0.3524,0.3537,0.3546,0.3455,0.3456,0.3456,0.3543,0,0.3188,0.3205,0.3236,0.3225,0.3228,0.3266,0.3283,0.3304,0.3334,0.3348,0.3375,0.338,0.3393,0.3392,0.3419,0.3444,0.3473,0.3432,0.349,0.3492,0.3489,0.3554,0.3557,0.3635,0.3551,0.3552,0.3553,0,0.3134,0.316,0.3161,0.3172,0.3169,0.3163,0.3175,0.3194,0.3261,0.3297,0.3346,0.3372,0.3416,0.3413,0.3493,0.347,0.35,0.3521,0.3525,0.3526,0.3518,0.3579,0.3652,0.3584,0.3564,0.3563,0.3562,0,0.304,0.3071,0.306,0.3071,0.3114,0.3099,0.3102,0.3166,0.3189,0.3267,0.3318,0.3371,0.341,0.3459,0.3533,0.3513,0.3622,0.3595,0.3638,0.3639,0.3646,0.3646,0.3647,0.3645,0.3645,0.3645,0.3644,0,0.2977,0.2952,0.3008,0.3001,0.295,0.3007,0.2976,0.3023,0.3115,0.3159,0.3271,0.3334,0.3425,0.3507,0.3548,0.3639,0.3644,0.3655,0.3666,0.366,0.366,0.3603,0.3467,0.3648,0.3647,0.3646,0.3646,0,0.2852,0.2918,0.2881,0.2911,0.2908,0.2853,0.2885,0.2904,0.302,0.3099,0.3134,0.3313,0.3443,0.3544,0.3637,0.3669,0.3606,0.3756,0.3754,0.3762,0.3714,0.3578,0.3182,0.3121,0.381,0.3811,0.3812,0,0.2787,0.2773,0.277,0.2767,0.2768,0.2733,0.2745,0.2832,0.2885,0.3087,0.3128,0.3303,0.3442,0.3621,0.3707,0.3814,0.362,0.3849,0.3798,0.3726,0.3583,0.3194,0.3145,0.3832,0.3833,0.3834,0.3834,0,0.2662,0.266,0.2656,0.2652,0.2643,0.2614,0.2638,0.2669,0.2819,0.2926,0.3096,0.3228,0.3478,0.3618,0.3785,0.3841,0.3614,0.3864,0.3791,0.3598,0.3168,0.3114,0.3762,0.384,0.384,0.3839,0.3839,0.3839,0.2557,0.2524,0.2559,0.2524,0.2527,0.2524,0.2479,0.2569,0.2638,0.2802,0.2988,0.3179,0.3511,0.3764,0.3783,0.3861,0.3608,0.3827,0.3674,0.3292,0.3185,0.3848,0.3929,0.3928,0.3928,0.3928,0.3928,0,0.2468,0.2478,0.245,0.243,0.2391,0.2424,0.2441,0.2419,0.247,0.2696,0.2846,0.3212,0.3438,0.3658,0.3866,0.3746,0.3482,0.3619,0.3133,0.3114,0.3785,0.3756,0.38,0.38,0.38,0.38,0.38,0.38,0.2459,0.2428,0.2413,0.2326,0.2301,0.2231,0.2219,0.2222,0.2334,0.2527,0.273,0.2946,0.3283,0.3417,0.3494,0.349,0.3131,0.2864,0.277,0.3359,0.3368,0.3376,0.3328,0.3281,0.3279,0.2074,0.2064,0.2057]},{"header":{"parameterUnit":"m.s-1","parameterCategory":2,"la1":30.2991,"la2":30.254,"lo1":-89.0895,"lo2":-89.0444,"dy":0.0017,"dx":0.0017,"nx":28,"ny":28,"refTime":"2025-03-14T21:00:00:Z","depth":"0","parameterNumber":3,"parameterNumberName":"V-component_of_CURRENTS"},"data":[0,0,0,0,0,0,0,0,0,0,0,0,0,0,0,0,0,0,0,0,0,0,0,0,0,0,0,0,0,0,0,0,0,0,0,0,0,0,0,0,0,0,0,0,0,0,0,0,0,0,0,0,0,0,0,0,0,0,0.0731,0.073,0,0.063,0.0628,0.0627,0.055,0.0549,0.0549,0.0549,0.0388,0.0385,0.0381,0,0,0,0,0,0,0,0,0,0,0,0,0,0.0783,0.0782,0.0731,0.073,0.0729,0.063,0.0628,0.0627,0.055,0.0549,0.0549,0.0548,0.039,0.0385,0.0381,0,0,0,0,0,0,0,0,0,0,0,0,0,0.0726,0.0782,0.0731,0.0681,0.0676,0.063,0.0628,0.0626,0.055,0.0549,0.0549,0.0548,0.0391,0.0386,0.038,0.0356,0,0,0.0362,0.036,0,0,0,0,0,0,0,0,0.0729,0.0724,0.0689,0.0685,0.0679,0.0605,0.0588,0.0534,0.055,0.0594,0.0549,0.0548,0.0458,0.0447,0.0425,0.0349,0.0342,0.0362,0.0358,0.0356,0.0354,0,0,0,0,0,0,0,0.0733,0.0727,0.0687,0.0689,0.0682,0.0639,0.063,0.0577,0.0527,0.059,0.0585,0.058,0.0454,0.0431,0.0421,0.034,0.0362,0.0357,0.0353,0.0351,0.0237,0.0237,0,0,0,0,0,0,0.0757,0.0731,0.0691,0.0685,0.0707,0.0639,0.0629,0.0626,0.0529,0.0515,0.058,0.0577,0.0441,0.0428,0.0415,0.0388,0.0356,0.035,0.0347,0.0236,0.0237,0.0237,0,0,0,0,0,0,0.0759,0.0755,0.0695,0.0708,0.0698,0.0639,0.0636,0.0625,0.0604,0.0522,0.0506,0.0572,0.044,0.0423,0.0374,0.0381,0.0348,0.0342,0.0236,0.0236,0.0237,0.0329,0,0,0,0,0,0,0.0761,0.0756,0.076,0.071,0.0698,0.0677,0.0637,0.0623,0.0603,0.0597,0.051,0.0495,0.0438,0.0383,0.0369,0.0372,0.0338,0.0235,0.0236,0.0237,0.0326,0.0333,0.0339,0,0,0,0,0,0.0763,0.0772,0.0761,0.0756,0.0707,0.0678,0.0668,0.0621,0.0604,0.0599,0.0542,0.0497,0.0378,0.0379,0.0361,0.0363,0.0235,0.0236,0.0237,0.0323,0.0332,0.0339,0,0,0,0,0,0,0.0792,0.0764,0.0751,0.075,0.0723,0.0667,0.066,0.0631,0.0583,0.0577,0.0499,0.048,0.044,0.0392,0.0395,0.0334,0.03,0.0298,0.0372,0.0379,0.0386,0.0406,0.0333,0,0,0,0,0,0.0805,0.0806,0.0772,0.0771,0.0764,0.0716,0.0698,0.067,0.0624,0.0602,0.0544,0.0483,0.043,0.0399,0.0345,0.0311,0.028,0.0302,0.0309,0.0315,0.0319,0.0282,0.0286,0.0241,0.0241,0.0241,0,0,0.0816,0.0801,0.0801,0.0778,0.0753,0.0745,0.0703,0.0686,0.0675,0.0592,0.0559,0.0504,0.0427,0.0389,0.0367,0.0349,0.0316,0.0316,0.0322,0.0323,0.0284,0.0288,0.0292,0.0241,0.0241,0.0241,0,0,0.0841,0.0829,0.084,0.0826,0.0802,0.0772,0.0775,0.0729,0.0705,0.0671,0.061,0.0566,0.0484,0.0433,0.0395,0.0408,0.0355,0.039,0.0435,0.04,0.0404,0.0406,0.0395,0.0395,0.0392,0.0392,0.0392,0,0.0854,0.0863,0.0838,0.0845,0.0834,0.0791,0.0795,0.0769,0.0712,0.0696,0.0674,0.0568,0.0505,0.0455,0.0457,0.0424,0.0402,0.0412,0.041,0.0412,0.0413,0.04,0.04,0.0397,0.0396,0.0396,0.0395,0,0.0881,0.0894,0.0901,0.0896,0.0879,0.0879,0.0843,0.0829,0.0798,0.0765,0.0721,0.0643,0.0581,0.0555,0.0505,0.0481,0.0464,0.0427,0.0394,0.0424,0.0408,0.0406,0.0403,0.0402,0.04,0.0399,0,0,0.0886,0.0918,0.0916,0.0925,0.0907,0.0889,0.0888,0.0863,0.0864,0.0812,0.0804,0.0714,0.0681,0.0637,0.0574,0.0539,0.0532,0.0492,0.0488,0.049,0.0473,0.0516,0.0518,0.0494,0.0494,0.0494,0.0466,0,0.0911,0.0958,0.0945,0.096,0.0981,0.0943,0.0943,0.0916,0.0892,0.0879,0.0811,0.0775,0.071,0.0685,0.0643,0.0557,0.0528,0.0544,0.0435,0.0432,0.0474,0.0517,0.0675,0.0668,0.0464,0.0464,0.0464,0,0.0927,0.0963,0.1008,0.1013,0.1011,0.1003,0.0989,0.0979,0.0961,0.0955,0.0921,0.0867,0.0809,0.0753,0.064,0.0654,0.0575,0.051,0.0506,0.0511,0.0472,0.0599,0.0672,0.0643,0.046,0.046,0.0461,0,0.0955,0.0981,0.1023,0.1027,0.1041,0.1034,0.1014,0.1003,0.1018,0.1001,0.1033,0.0942,0.0923,0.0805,0.0682,0.0655,0.057,0.0512,0.0479,0.0482,0.0577,0.0589,0.0617,0.0436,0.0436,0.0436,0.0436,0,0.0989,0.1005,0.104,0.1069,0.1076,0.1064,0.1075,0.1061,0.109,0.114,0.1071,0.1108,0.0936,0.0868,0.0726,0.0623,0.0605,0.0504,0.0481,0.0616,0.0631,0.0575,0.0513,0.0435,0.0435,0.0435,0.0435,0,0.0999,0.1049,0.1077,0.1103,0.1103,0.1094,0.1109,0.1146,0.1173,0.1247,0.1254,0.1234,0.1169,0.1008,0.0833,0.0711,0.059,0.0538,0.0725,0.0724,0.0659,0.0595,0.0556,0.0584,0.0499,0.05,0.0501,0,0.1015,0.1047,0.108,0.1113,0.1119,0.1126,0.1161,0.1179,0.1238,0.1338,0.1389,0.1369,0.1418,0.1204,0.0977,0.0777,0.0672,0.0744,0.0709,0.07,0.061,0.0556,0.0579,0.0878,0.0881,0.0885,0.0887,0,0.102,0.1029,0.1062,0.1139,0.1178,0.1212,0.1259,0.1327,0.14,0.1514,0.1663,0.1723,0.1592,0.1509,0.1227,0.105,0.0795,0.08,0.0745,0.0881,0.0871,0.0874,0.0851,0.0915,0.0912,0.091,0.0909,0.0908,0.0996,0.1016,0.1091,0.1141,0.1209,0.1307,0.1356,0.1468,0.161,0.1815,0.1893,0.2124,0.2045,0.1718,0.1407,0.1079,0.0987,0.1008,0.0924,0.0865,0.0923,0.0972,0.1029,0.1027,0.1025,0.1023,0.1022,0,0.0976,0.1036,0.1097,0.1189,0.1271,0.1305,0.1439,0.1535,0.1729,0.2043,0.2253,0.2654,0.24,0.2087,0.1656,0.1331,0.1171,0.1138,0.1119,0.1127,0.1157,0.121,0.1367,0.1367,0.1367,0.1367,0.1367,0.1367,0.0991,0.1055,0.1099,0.1233,0.1303,0.1429,0.1516,0.1684,0.1941,0.2457,0.2892,0.3228,0.3317,0.2251,0.1649,0.145,0.127,0.1166,0.1032,0.1071,0.1053,0.1035,0.1073,0.1199,0.1199,0.1132,0.113,0.1129]}],[{"header":{"parameterUnit":"m.s-1","parameterCategory":2,"la1":30.2991,"la2":30.254,"lo1":-89.0895,"lo2":-89.0444,"dy":0.0017,"dx":0.0017,"nx":28,"ny":28,"refTime":"2025-03-14T21:00:00:Z","depth":"2","parameterNumber":2,"parameterNumberName":"U-component_of_CURRENTS"},"data":[0,0,0,0,0,0,0,0,0,0,0,0,0,0,0,0,0,0,0,0,0,0,0,0,0,0,0,0,0,0,0,0,0,0,0,0,0,0,0,0,0,0,0,0,0,0,0,0,0,0,0,0,0,0,0,0,0,0,0.3291,0.3291,0,0.3274,0.3274,0.3273,0.3237,0.3237,0.3236,0.3236,0.3176,0.3175,0.3174,0,0,0,0,0,0,0,0,0,0,0,0,0,0.3281,0.3281,0.3291,0.3291,0.3291,0.3274,0.3274,0.3273,0.3237,0.3237,0.3236,0.3236,0.3176,0.3175,0.3174,0,0,0,0,0,0,0,0,0,0,0,0,0,0.3273,0.3281,0.3291,0.3274,0.3272,0.3275,0.3274,0.3273,0.3237,0.3237,0.3236,0.3235,0.3177,0.3175,0.3173,0.3174,0,0,0.3168,0.3167,0,0,0,0,0,0,0,0,0.3274,0.3273,0.3276,0.3275,0.3274,0.326,0.3248,0.3239,0.3237,0.3247,0.3236,0.3235,0.3203,0.3199,0.3193,0.3172,0.3169,0.3168,0.3167,0.3166,0.3165,0,0,0,0,0,0,0,0.3274,0.3274,0.3281,0.3277,0.3275,0.3264,0.3261,0.3246,0.3225,0.3246,0.3244,0.3248,0.3201,0.3195,0.3191,0.3168,0.3168,0.3166,0.3165,0.3164,0.3181,0.3182,0,0,0,0,0,0,0.3285,0.3275,0.3281,0.3281,0.3276,0.3265,0.3262,0.3262,0.3226,0.3221,0.3249,0.3247,0.3198,0.3193,0.3189,0.3199,0.3166,0.3164,0.3163,0.3179,0.3181,0.3183,0,0,0,0,0,0,0.3285,0.3286,0.3282,0.328,0.3279,0.3266,0.3266,0.3262,0.3259,0.3229,0.3223,0.325,0.3197,0.3191,0.3185,0.3195,0.3163,0.3162,0.3178,0.318,0.3182,0.3211,0,0,0,0,0,0,0.3284,0.3286,0.3288,0.3281,0.328,0.3289,0.3267,0.3263,0.3264,0.3261,0.3229,0.3222,0.3196,0.3188,0.3183,0.3192,0.316,0.3176,0.3179,0.3181,0.3208,0.3214,0.3219,0,0,0,0,0,0.3284,0.3288,0.3288,0.3289,0.3284,0.3291,0.3289,0.3274,0.3265,0.3268,0.3249,0.3223,0.3203,0.3187,0.3181,0.319,0.3174,0.3178,0.3181,0.3206,0.3213,0.3219,0,0,0,0,0,0,0.3279,0.3285,0.3285,0.3288,0.3295,0.3286,0.3287,0.3282,0.327,0.3266,0.3234,0.3227,0.323,0.3214,0.3197,0.3209,0.3188,0.319,0.3209,0.3216,0.3221,0.3214,0.3159,0,0,0,0,0,0.3284,0.3289,0.3295,0.3299,0.3304,0.3299,0.33,0.3295,0.3286,0.328,0.3259,0.3245,0.3241,0.323,0.3223,0.3221,0.3225,0.3229,0.3234,0.3239,0.3232,0.3257,0.3263,0.3194,0.3194,0.3194,0,0,0.3282,0.3288,0.3289,0.33,0.33,0.3305,0.3297,0.3304,0.3304,0.3276,0.3266,0.3264,0.3248,0.3249,0.3249,0.3233,0.3267,0.3243,0.3247,0.3237,0.3261,0.3267,0.3273,0.3197,0.3196,0.3196,0,0,0.328,0.329,0.3292,0.3304,0.3317,0.3315,0.3322,0.3322,0.3317,0.3318,0.3304,0.3308,0.3292,0.3283,0.3277,0.3311,0.3301,0.3318,0.3325,0.335,0.3355,0.336,0.3395,0.3402,0.3312,0.3312,0.3312,0,0.3277,0.3277,0.3294,0.3305,0.3305,0.3322,0.3319,0.3328,0.3324,0.3322,0.332,0.3319,0.3306,0.3308,0.3321,0.332,0.3338,0.3296,0.3355,0.336,0.3364,0.3398,0.3406,0.3314,0.3314,0.3314,0.3314,0,0.3266,0.328,0.3285,0.3298,0.3306,0.3311,0.3327,0.3339,0.334,0.3342,0.3354,0.3349,0.3345,0.3353,0.3341,0.3368,0.3376,0.3364,0.3333,0.3372,0.3407,0.3414,0.3317,0.3316,0.3316,0.3315,0,0,0.3205,0.3265,0.326,0.3253,0.3298,0.328,0.332,0.3327,0.3331,0.3353,0.3353,0.3367,0.3374,0.337,0.337,0.3387,0.344,0.3388,0.3389,0.3413,0.351,0.3521,0.353,0.3441,0.3442,0.3443,0.3529,0,0.3178,0.3193,0.3225,0.3211,0.3213,0.3252,0.327,0.3291,0.3321,0.3335,0.3361,0.3366,0.3379,0.3379,0.3406,0.3431,0.3459,0.3419,0.3476,0.3478,0.3474,0.3538,0.3153,0.3197,0.3536,0.3538,0.3539,0,0.3123,0.3148,0.3147,0.3155,0.3152,0.3145,0.3157,0.3177,0.3246,0.3283,0.3331,0.3357,0.3401,0.3399,0.3478,0.3456,0.3485,0.3507,0.3511,0.351,0.3502,0.321,0.3198,0.3551,0.355,0.3549,0.3548,0,0.3029,0.3056,0.3044,0.3054,0.3096,0.308,0.3082,0.3148,0.3174,0.3251,0.3304,0.3356,0.3395,0.3443,0.3518,0.3498,0.3606,0.358,0.3621,0.3623,0.3298,0.327,0.3629,0.3629,0.3629,0.3629,0.3628,0,0.2965,0.2937,0.299,0.2982,0.2929,0.2985,0.2955,0.3002,0.3097,0.3144,0.3255,0.3319,0.341,0.3492,0.3533,0.3622,0.3628,0.3638,0.3649,0.3304,0.3277,0.3576,0.3568,0.3632,0.3631,0.3631,0.363,0,0.284,0.2906,0.2865,0.2891,0.2887,0.283,0.2863,0.2883,0.3002,0.3084,0.312,0.3299,0.3428,0.3528,0.362,0.3651,0.3716,0.3738,0.3348,0.3313,0.3709,0.3703,0.3788,0.379,0.3791,0.3791,0.3792,0,0.2775,0.2758,0.2752,0.275,0.2748,0.2711,0.2725,0.2812,0.2865,0.3073,0.3114,0.329,0.3409,0.3586,0.3568,0.3643,0.3769,0.3424,0.332,0.3726,0.3727,0.3719,0.3711,0.2897,0.289,0.2885,0.288,0,0.2645,0.2642,0.2637,0.2635,0.2624,0.2593,0.2616,0.2647,0.2799,0.2898,0.3069,0.3184,0.3333,0.325,0.3374,0.3365,0.3382,0.3325,0.3811,0.2952,0.2901,0.2899,0.2916,0.2831,0.2836,0.284,0.2843,0.2845,0.2538,0.2504,0.254,0.2504,0.2507,0.25,0.2455,0.2516,0.2571,0.2674,0.2858,0.2916,0.2996,0.297,0.2915,0.2879,0.3144,0.3055,0.3062,0.3078,0.2996,0.2953,0.2877,0.2882,0.2886,0.289,0.2894,0,0.2442,0.2456,0.2428,0.2409,0.2366,0.2403,0.2416,0.2369,0.2371,0.2449,0.2511,0.2353,0.2309,0.2432,0.2261,0.2336,0.2191,0.2305,0.2069,0.2122,0.2168,0.2029,0.1659,0.1656,0.1652,0.1649,0,0,0.243,0.2399,0.2385,0.2296,0.2276,0.2199,0.2185,0.2125,0.2121,0.2052,0.2015,0.2103,0.2316,0.191,0.1891,0.1761,0.1906,0.1671,0.2657,0.2426,0.2466,0.2602,0.2453,0,0,0,0,0]},{"header":{"parameterUnit":"m.s-1","parameterCategory":2,"la1":30.2991,"la2":30.254,"lo1":-89.0895,"lo2":-89.0444,"dy":0.0017,"dx":0.0017,"nx":28,"ny":28,"refTime":"2025-03-14T21:00:00:Z","depth":"2","parameterNumber":3,"parameterNumberName":"V-component_of_CURRENTS"},"data":[0,0,0,0,0,0,0,0,0,0,0,0,0,0,0,0,0,0,0,0,0,0,0,0,0,0,0,0,0,0,0,0,0,0,0,0,0,0,0,0,0,0,0,0,0,0,0,0,0,0,0,0,0,0,0,0,0,0,0.0694,0.0694,0,0.0592,0.0591,0.0589,0.0512,0.0511,0.0511,0.0511,0.035,0.0346,0.0343,0,0,0,0,0,0,0,0,0,0,0,0,0,0.0747,0.0747,0.0695,0.0694,0.0693,0.0592,0.0591,0.0589,0.0512,0.0511,0.0511,0.051,0.0351,0.0347,0.0342,0,0,0,0,0,0,0,0,0,0,0,0,0,0.069,0.0747,0.0695,0.0645,0.0639,0.0593,0.0591,0.0589,0.0512,0.0511,0.0511,0.051,0.0353,0.0347,0.0342,0.0317,0,0,0.0324,0.0321,0,0,0,0,0,0,0,0,0.0693,0.0687,0.0653,0.0648,0.0642,0.0567,0.0551,0.0496,0.0512,0.0557,0.0511,0.051,0.042,0.0409,0.0387,0.031,0.0303,0.0323,0.032,0.0317,0.0315,0,0,0,0,0,0,0,0.0697,0.0691,0.0651,0.0652,0.0645,0.0601,0.0593,0.054,0.0489,0.0553,0.0548,0.0542,0.0416,0.0393,0.0382,0.0301,0.0323,0.0318,0.0315,0.0312,0.0197,0.0198,0,0,0,0,0,0,0.0721,0.0695,0.0654,0.0648,0.067,0.0602,0.0592,0.0589,0.0491,0.0477,0.0543,0.0539,0.0403,0.0389,0.0376,0.0349,0.0317,0.0312,0.0308,0.0197,0.0197,0.0198,0,0,0,0,0,0,0.0723,0.0719,0.0658,0.0671,0.0661,0.0602,0.0599,0.0587,0.0566,0.0485,0.0468,0.0535,0.0402,0.0384,0.0335,0.0342,0.0309,0.0304,0.0196,0.0197,0.0198,0.0289,0,0,0,0,0,0,0.0725,0.072,0.0725,0.0674,0.0661,0.064,0.06,0.0586,0.0565,0.0559,0.0472,0.0457,0.04,0.0345,0.033,0.0333,0.0299,0.0196,0.0197,0.0197,0.0286,0.0293,0.03,0,0,0,0,0,0.0727,0.0737,0.0726,0.072,0.067,0.0641,0.0631,0.0584,0.0566,0.0562,0.0504,0.0459,0.0339,0.034,0.0323,0.0325,0.0195,0.0196,0.0197,0.0283,0.0292,0.0299,0,0,0,0,0,0,0.0756,0.0729,0.0715,0.0714,0.0687,0.063,0.0622,0.0594,0.0545,0.0539,0.0461,0.0442,0.0401,0.0353,0.0356,0.0295,0.0261,0.0259,0.0333,0.034,0.0347,0.0366,0.0294,0,0,0,0,0,0.077,0.0771,0.0736,0.0735,0.0728,0.0679,0.0661,0.0633,0.0586,0.0564,0.0506,0.0445,0.0391,0.036,0.0306,0.0271,0.024,0.0262,0.0269,0.0275,0.0279,0.0242,0.0246,0.0201,0.0201,0.0201,0,0,0.078,0.0766,0.0765,0.0742,0.0716,0.0708,0.0666,0.0649,0.0637,0.0554,0.052,0.0466,0.0388,0.0349,0.0327,0.0309,0.0276,0.0276,0.0282,0.0283,0.0243,0.0248,0.0252,0.0202,0.0202,0.0202,0,0,0.0805,0.0793,0.0804,0.0789,0.0766,0.0735,0.0738,0.0691,0.0667,0.0633,0.0571,0.0527,0.0444,0.0393,0.0355,0.0368,0.0315,0.035,0.0395,0.0359,0.0363,0.0365,0.0353,0.0354,0.0352,0.0352,0.0352,0,0.0817,0.0826,0.0801,0.0808,0.0796,0.0754,0.0757,0.0731,0.0673,0.0657,0.0636,0.0528,0.0466,0.0415,0.0417,0.0383,0.0362,0.0371,0.0369,0.0371,0.0372,0.0359,0.0358,0.0356,0.0356,0.0355,0.0355,0,0.0843,0.0856,0.0863,0.0857,0.084,0.0839,0.0803,0.0789,0.0758,0.0725,0.0681,0.0603,0.054,0.0514,0.0464,0.044,0.0423,0.0386,0.0353,0.0383,0.0366,0.0364,0.0363,0.0361,0.036,0.0359,0,0,0.0848,0.0878,0.0876,0.0883,0.0866,0.0847,0.0847,0.0821,0.0823,0.077,0.0761,0.0672,0.0639,0.0594,0.0532,0.0497,0.049,0.0451,0.0447,0.0448,0.043,0.0472,0.0474,0.0452,0.0452,0.0452,0.0423,0,0.0871,0.0916,0.0904,0.0915,0.0935,0.0898,0.09,0.0872,0.0849,0.0836,0.0767,0.0731,0.0667,0.0643,0.06,0.0514,0.0485,0.0502,0.0392,0.039,0.0431,0.0473,0.0329,0.0296,0.0421,0.0421,0.042,0,0.0887,0.0921,0.0964,0.0966,0.0963,0.0954,0.094,0.0931,0.0914,0.0909,0.0876,0.0822,0.0764,0.0709,0.0596,0.061,0.0531,0.0466,0.0463,0.0467,0.0428,0.028,0.0287,0.0416,0.0417,0.0417,0.0417,0,0.0914,0.0936,0.0975,0.0979,0.0992,0.0982,0.0962,0.0954,0.097,0.0954,0.0987,0.0896,0.0877,0.0759,0.0637,0.0611,0.0525,0.0468,0.0434,0.0436,0.0275,0.0265,0.0391,0.0391,0.0391,0.0391,0.0391,0,0.0947,0.096,0.0991,0.1018,0.1023,0.101,0.102,0.1007,0.1039,0.1092,0.1024,0.1061,0.0889,0.0822,0.068,0.0577,0.0559,0.0459,0.0435,0.0307,0.0301,0.0363,0.0361,0.039,0.039,0.039,0.0391,0,0.0955,0.1005,0.1029,0.105,0.105,0.1038,0.1053,0.1089,0.1121,0.1198,0.1205,0.1186,0.112,0.096,0.0785,0.0664,0.0529,0.049,0.0376,0.0341,0.045,0.0452,0.0448,0.0449,0.045,0.0451,0.0452,0,0.097,0.0999,0.1029,0.1062,0.1064,0.1068,0.1104,0.1124,0.1182,0.1289,0.1339,0.132,0.1342,0.1127,0.0814,0.0586,0.061,0.038,0.0305,0.0481,0.0457,0.0457,0.0458,0.0118,0.0116,0.0115,0.0113,0,0.0969,0.0976,0.1008,0.1085,0.1123,0.1153,0.1197,0.1264,0.134,0.1437,0.1589,0.1625,0.1408,0.1118,0.0798,0.0607,0.0402,0.0348,0.0526,0.016,0.0177,0.0152,0.0161,0.0099,0.01,0.0101,0.0102,0.0102,0.0941,0.0959,0.1035,0.1085,0.1151,0.124,0.1288,0.135,0.1464,0.1557,0.1616,0.1597,0.1372,0.0858,0.06,0.0288,0.0345,0.0218,0.0218,0.0222,0.0223,0.0244,0.0179,0.018,0.0182,0.0183,0.0185,0,0.0912,0.0976,0.1037,0.1127,0.12,0.1242,0.1367,0.1411,0.1519,0.1536,0.1569,0.1273,0.0957,0.0755,0.0246,0.004,-0.0073,-0.0,-0.0111,-0.0096,-0.0082,-0.01,-0.0229,-0.0229,-0.023,-0.0231,0,0,0.0923,0.0986,0.103,0.1154,0.123,0.1341,0.1424,0.1473,0.1481,0.1458,0.1374,0.1161,0.1005,0.0562,0.0248,0.0029,0.0007,-0.0052,0.0283,0.0197,0.0213,0.003,0.0019,0,0,0,0,0]}],[{"header":{"parameterUnit":"m.s-1","parameterCategory":2,"la1":30.2991,"la2":30.254,"lo1":-89.0895,"lo2":-89.0444,"dy":0.0017,"dx":0.0017,"nx":28,"ny":28,"refTime":"2025-03-14T21:00:00:Z","depth":"4","parameterNumber":2,"parameterNumberName":"U-component_of_CURRENTS"},"data":[0,0,0,0,0,0,0,0,0,0,0,0,0,0,0,0,0,0,0,0,0,0,0,0,0,0,0,0,0,0,0,0,0,0,0,0,0,0,0,0,0,0,0,0,0,0,0,0,0,0,0,0,0,0,0,0,0,0,0.148,0.1481,0,0.1567,0.1568,0.1569,0.1643,0.1643,0.1644,0.1645,0.178,0.1782,0.1785,0,0,0,0,0,0,0,0,0,0,0,0,0,0.1398,0.1399,0.148,0.1481,0.1482,0.1567,0.1568,0.1569,0.1642,0.1643,0.1644,0.1645,0.1779,0.1782,0.1785,0,0,0,0,0,0,0,0,0,0,0,0,0,0.1454,0.1399,0.1479,0.1528,0.1534,0.1567,0.1568,0.157,0.1642,0.1643,0.1645,0.1646,0.1778,0.1782,0.1786,0.1788,0,0,0.1799,0.1801,0,0,0,0,0,0,0,0,0.1451,0.1457,0.152,0.1525,0.1531,0.1595,0.1589,0.1645,0.1642,0.1601,0.1645,0.1646,0.1721,0.173,0.1744,0.1795,0.1801,0.1799,0.1802,0.1804,0.1805,0,0,0,0,0,0,0,0.1447,0.1454,0.1514,0.1521,0.1528,0.1554,0.1563,0.16,0.1654,0.1605,0.161,0.162,0.1725,0.1739,0.1747,0.1803,0.1799,0.1803,0.1806,0.1807,0.1962,0.1964,0,0,0,0,0,0,0.1434,0.145,0.1511,0.1517,0.1493,0.1554,0.1564,0.1573,0.1653,0.1666,0.1619,0.1623,0.1731,0.1742,0.1752,0.1856,0.1804,0.1808,0.181,0.1961,0.1962,0.1964,0,0,0,0,0,0,0.1431,0.1438,0.1508,0.1485,0.1496,0.1554,0.1564,0.1575,0.1619,0.1663,0.1677,0.1656,0.1733,0.1746,0.1816,0.1858,0.181,0.1814,0.1959,0.1961,0.1963,0.2002,0,0,0,0,0,0,0.1429,0.1437,0.1455,0.1484,0.1497,0.1545,0.1563,0.1575,0.1621,0.1629,0.1699,0.1711,0.1735,0.181,0.182,0.1863,0.1817,0.1957,0.196,0.1963,0.1999,0.2006,0.2011,0,0,0,0,0,0.1425,0.1441,0.1455,0.1464,0.1515,0.1546,0.1556,0.16,0.1622,0.1645,0.1698,0.1711,0.1836,0.1814,0.1826,0.1872,0.1955,0.1959,0.1962,0.1996,0.2004,0.2011,0,0,0,0,0,0,0.1422,0.1451,0.1467,0.1494,0.1525,0.1559,0.1589,0.1613,0.1671,0.1691,0.173,0.1745,0.1823,0.1838,0.1813,0.1924,0.1898,0.1904,0.192,0.1928,0.1934,0.1928,0.182,0,0,0,0,0,0.1425,0.1446,0.1475,0.1501,0.1517,0.1557,0.1582,0.161,0.1655,0.1683,0.1732,0.1787,0.184,0.1877,0.192,0.1979,0.1988,0.2016,0.2022,0.2027,0.2032,0.2078,0.2088,0.1976,0.1976,0.1975,0,0,0.1432,0.1451,0.1465,0.1502,0.1533,0.1565,0.1577,0.1621,0.166,0.1688,0.177,0.1812,0.186,0.1931,0.1967,0.1955,0.2064,0.2032,0.2036,0.2038,0.2082,0.2093,0.2103,0.1978,0.1978,0.1977,0,0,0.1445,0.1473,0.1492,0.152,0.1565,0.1589,0.1606,0.1655,0.1694,0.1761,0.1799,0.1863,0.1942,0.1987,0.2018,0.2082,0.2094,0.2103,0.2136,0.2181,0.2191,0.2199,0.2221,0.2231,0.2108,0.2108,0.2108,0,0.1457,0.1484,0.1505,0.1533,0.1569,0.1602,0.1641,0.1676,0.1746,0.1785,0.1796,0.1927,0.1968,0.2056,0.2084,0.2097,0.2117,0.2104,0.2189,0.2197,0.2205,0.2226,0.2237,0.2111,0.211,0.211,0.211,0,0.1479,0.1513,0.153,0.1576,0.1616,0.1655,0.1702,0.175,0.18,0.1838,0.1937,0.1991,0.2069,0.2095,0.2115,0.2201,0.2194,0.2188,0.2167,0.2219,0.2237,0.2248,0.2114,0.2113,0.2112,0.2112,0,0,0.1488,0.1534,0.155,0.1579,0.1648,0.168,0.1749,0.1818,0.1864,0.1937,0.201,0.2105,0.2134,0.217,0.2205,0.2247,0.2321,0.2249,0.225,0.2265,0.2414,0.2255,0.2251,0.2336,0.2338,0.234,0.2403,0,0.1509,0.1544,0.1588,0.1657,0.1677,0.1746,0.1805,0.1874,0.1929,0.2,0.207,0.2148,0.2162,0.2209,0.2257,0.2314,0.2352,0.2304,0.2367,0.2368,0.2216,0.2258,0.2347,0.2411,0.2413,0.2415,0.2416,0,0.1524,0.1546,0.1594,0.1679,0.1705,0.1767,0.187,0.1934,0.2025,0.2064,0.2145,0.2191,0.2293,0.2279,0.2397,0.2371,0.2398,0.2423,0.2426,0.2269,0.2228,0.235,0.2435,0.2433,0.2432,0.2431,0.243,0,0.148,0.1566,0.1603,0.1631,0.1721,0.1791,0.1872,0.1962,0.2015,0.2118,0.2152,0.2261,0.2333,0.2392,0.2455,0.244,0.2555,0.2535,0.2412,0.2401,0.2508,0.2499,0.2599,0.2599,0.2598,0.2598,0.2598,0,0.1458,0.1503,0.1593,0.1607,0.1701,0.1786,0.1886,0.1963,0.2055,0.2107,0.2196,0.2233,0.2368,0.2442,0.2478,0.2476,0.2579,0.242,0.2408,0.2522,0.2514,0.2515,0.2505,0.2601,0.26,0.26,0.2599,0,0.1402,0.1436,0.1505,0.1623,0.167,0.1755,0.1904,0.1946,0.2044,0.2113,0.2152,0.2257,0.2345,0.2443,0.2547,0.249,0.2511,0.2481,0.2599,0.2594,0.2319,0.231,0.2339,0.2333,0.2329,0.2326,0.2323,0,0.1364,0.1381,0.1523,0.156,0.163,0.1748,0.1803,0.193,0.1974,0.2097,0.2119,0.2235,0.2293,0.2307,0.2419,0.2468,0.2444,0.2426,0.2361,0.2307,0.2294,0.2292,0.2289,0.2316,0.2315,0.2313,0.2312,0,0.1326,0.1397,0.1452,0.1521,0.1595,0.1665,0.1774,0.1786,0.1911,0.2013,0.2021,0.2047,0.2136,0.2208,0.2267,0.2295,0.2421,0.2381,0.2389,0.2328,0.228,0.2271,0.2273,0.2298,0.23,0.2301,0.2302,0,0.1333,0.1363,0.1425,0.1482,0.1549,0.1557,0.1629,0.1674,0.1727,0.1868,0.1869,0.1981,0.2109,0.2118,0.217,0.219,0.2156,0.2075,0.2098,0.2116,0.2015,0.1919,0.1818,0,0,0,0,0,0.1334,0.1323,0.1368,0.1396,0.1452,0.149,0.1582,0.1643,0.1765,0.1724,0.1789,0.1851,0.1888,0.1954,0.1935,0.2092,0.2181,0.2059,0.2104,0.2215,0.2232,0.2135,0,0,0,0,0,0,0.1299,0.1353,0.1338,0.13,0.1303,0.1341,0.1394,0.1475,0.1473,0.1604,0.1649,0.1737,0.183,0.1891,0.19,0.1924,0.1912,0.2147,0.2142,0.2205,0.2221,0.2235,0.214,0,0,0,0,0]},{"header":{"parameterUnit":"m.s-1","parameterCategory":2,"la1":30.2991,"la2":30.254,"lo1":-89.0895,"lo2":-89.0444,"dy":0.0017,"dx":0.0017,"nx":28,"ny":28,"refTime":"2025-03-14T21:00:00:Z","depth":"4","parameterNumber":3,"parameterNumberName":"V-component_of_CURRENTS"},"data":[0,0,0,0,0,0,0,0,0,0,0,0,0,0,0,0,0,0,0,0,0,0,0,0,0,0,0,0,0,0,0,0,0,0,0,0,0,0,0,0,0,0,0,0,0,0,0,0,0,0,0,0,0,0,0,0,0,0,-0.0129,-0.013,0,-0.0149,-0.0149,-0.0149,-0.0171,-0.0172,-0.0172,-0.0172,-0.0197,-0.0197,-0.0198,0,0,0,0,0,0,0,0,0,0,0,0,0,-0.0127,-0.0127,-0.0129,-0.013,-0.013,-0.0149,-0.0149,-0.0149,-0.0171,-0.0172,-0.0172,-0.0173,-0.0197,-0.0197,-0.0198,0,0,0,0,0,0,0,0,0,0,0,0,0,-0.0135,-0.0126,-0.0129,-0.0143,-0.0145,-0.0149,-0.0149,-0.0149,-0.0171,-0.0172,-0.0172,-0.0173,-0.0197,-0.0197,-0.0198,-0.019,0,0,-0.0199,-0.0199,0,0,0,0,0,0,0,0,-0.0134,-0.0135,-0.0141,-0.0142,-0.0144,-0.0158,-0.0157,-0.0163,-0.0171,-0.0161,-0.0172,-0.0173,-0.0184,-0.0186,-0.0188,-0.0191,-0.0192,-0.0199,-0.02,-0.02,-0.02,0,0,0,0,0,0,0,-0.0134,-0.0134,-0.0137,-0.0141,-0.0143,-0.0154,-0.0155,-0.0158,-0.0169,-0.0162,-0.0164,-0.0166,-0.0185,-0.0187,-0.0189,-0.0193,-0.0199,-0.02,-0.02,-0.02,-0.0199,-0.0198,0,0,0,0,0,0,-0.013,-0.0134,-0.0136,-0.0137,-0.0141,-0.0153,-0.0155,-0.0153,-0.0169,-0.0172,-0.0165,-0.0167,-0.0186,-0.0188,-0.019,-0.0173,-0.02,-0.02,-0.0201,-0.0199,-0.0199,-0.0198,0,0,0,0,0,0,-0.013,-0.013,-0.0135,-0.0136,-0.0138,-0.0153,-0.015,-0.0153,-0.0158,-0.0172,-0.0175,-0.0168,-0.0187,-0.0189,-0.019,-0.0174,-0.02,-0.0201,-0.0199,-0.0199,-0.0198,-0.0145,0,0,0,0,0,0,-0.013,-0.013,-0.0128,-0.0136,-0.0138,-0.0135,-0.015,-0.0153,-0.0159,-0.0161,-0.0175,-0.0178,-0.0187,-0.0189,-0.019,-0.0176,-0.0201,-0.02,-0.0199,-0.0199,-0.0147,-0.0143,-0.0139,0,0,0,0,0,-0.013,-0.0122,-0.0128,-0.0128,-0.0134,-0.0135,-0.0136,-0.0149,-0.0158,-0.0156,-0.0166,-0.0178,-0.0186,-0.0189,-0.0191,-0.0176,-0.02,-0.0199,-0.0199,-0.0149,-0.0143,-0.0139,0,0,0,0,0,0,-0.012,-0.0124,-0.013,-0.0125,-0.0129,-0.0138,-0.0139,-0.0147,-0.0153,-0.0156,-0.0171,-0.0174,-0.0169,-0.0182,-0.0185,-0.0175,-0.0196,-0.0196,-0.0158,-0.0153,-0.0149,-0.0137,-0.0202,0,0,0,0,0,-0.0117,-0.0113,-0.0119,-0.0115,-0.0117,-0.0128,-0.013,-0.0138,-0.0144,-0.0148,-0.0156,-0.0165,-0.0167,-0.0168,-0.0174,-0.0166,-0.0186,-0.016,-0.0155,-0.0152,-0.0144,-0.0163,-0.0159,-0.0196,-0.0196,-0.0196,0,0,-0.0112,-0.0114,-0.0113,-0.0113,-0.0118,-0.011,-0.0131,-0.0131,-0.012,-0.0148,-0.0137,-0.0151,-0.0163,-0.0153,-0.0153,-0.0162,-0.0153,-0.0151,-0.0147,-0.0142,-0.0161,-0.0158,-0.0155,-0.0195,-0.0195,-0.0195,0,0,-0.0099,-0.0103,-0.0094,-0.0093,-0.0097,-0.01,-0.0099,-0.0106,-0.0105,-0.0098,-0.0114,-0.0117,-0.0122,-0.0123,-0.0125,-0.0103,-0.0131,-0.0109,-0.0074,-0.0092,-0.0089,-0.0086,-0.0109,-0.0109,-0.0105,-0.0105,-0.0105,0,-0.0095,-0.008,-0.0092,-0.0081,-0.007,-0.0092,-0.0073,-0.0075,-0.008,-0.0072,-0.0089,-0.0091,-0.0104,-0.0086,-0.008,-0.0091,-0.0111,-0.0089,-0.0085,-0.0083,-0.0082,-0.0106,-0.0106,-0.0102,-0.0102,-0.0103,-0.0103,0,-0.0071,-0.0059,-0.0052,-0.0041,-0.0033,-0.0021,-0.002,-0.0017,-0.0022,-0.0023,-0.0012,-0.0031,-0.0032,-0.0037,-0.0051,-0.004,-0.0062,-0.0079,-0.0095,-0.0075,-0.0101,-0.0103,-0.0098,-0.0099,-0.01,-0.0101,0,0,-0.0051,-0.0039,-0.0031,-0.0009,-0.0006,0.0013,0.0025,0.0043,0.0059,0.0047,0.0072,0.0061,0.0043,0.004,0.002,0.0005,-0.0004,-0.0029,-0.0031,-0.0046,-0.005,-0.007,-0.0074,-0.0024,-0.0023,-0.0023,-0.0074,0,-0.0023,0.0005,0.0013,0.0061,0.0079,0.008,0.0101,0.0112,0.0107,0.012,0.0103,0.0114,0.0076,0.0077,0.0057,0.0016,-0.0006,0.001,-0.0072,-0.0074,-0.0091,-0.0076,-0.0023,-0.0075,-0.0076,-0.0076,-0.0076,0,0.0008,0.0027,0.0064,0.0119,0.0132,0.0164,0.0202,0.0221,0.0221,0.0212,0.0205,0.0183,0.0175,0.0132,0.0071,0.0081,0.002,-0.0021,-0.0025,-0.0061,-0.0097,-0.0101,-0.008,-0.0079,-0.0079,-0.0079,-0.0079,0,0.003,0.008,0.0115,0.013,0.017,0.0209,0.0246,0.0254,0.0277,0.0275,0.0274,0.0251,0.0248,0.0174,0.0087,0.0077,0.0007,-0.0018,-0.0096,-0.0098,-0.0089,-0.0091,-0.0072,-0.0072,-0.0072,-0.0071,-0.0071,0,0.0058,0.0097,0.0136,0.0158,0.0242,0.0256,0.033,0.0344,0.0353,0.0384,0.0333,0.0332,0.0257,0.0205,0.011,0.0008,0.0022,-0.0085,-0.0109,-0.0067,-0.0066,-0.0091,-0.0092,-0.0073,-0.0073,-0.0072,-0.0072,0,0.0083,0.0081,0.0153,0.0219,0.025,0.0323,0.0408,0.0439,0.0431,0.0465,0.0468,0.041,0.0341,0.0249,0.0138,0.0047,-0.0055,-0.0101,-0.0043,-0.0064,-0.0157,-0.0156,-0.0188,-0.0189,-0.019,-0.0191,-0.0191,0,0.0092,0.0121,0.0223,0.0265,0.0308,0.0401,0.0449,0.0482,0.0518,0.0504,0.0527,0.0466,0.0416,0.0248,0.0136,-0.0033,-0.007,-0.0133,-0.0151,-0.0147,-0.0168,-0.0164,-0.0162,-0.0193,-0.0193,-0.0193,-0.0193,0,0.0145,0.0183,0.0237,0.032,0.0391,0.0478,0.0564,0.0595,0.0618,0.061,0.0568,0.0462,0.0385,0.0251,0.0128,-0.0004,-0.0094,-0.0143,-0.0143,-0.016,-0.0153,-0.0172,-0.0168,-0.0196,-0.0196,-0.0196,-0.0195,0,0.0201,0.025,0.0301,0.0382,0.0457,0.0524,0.058,0.0618,0.0647,0.0638,0.0625,0.0502,0.0453,0.0265,0.0144,0.0027,-0.0018,-0.0084,-0.0087,-0.0085,-0.0047,-0.0022,-0.0039,0,0,0,0,0,0.0251,0.0275,0.0351,0.042,0.0491,0.0534,0.0626,0.0662,0.0699,0.0675,0.0649,0.0564,0.0362,0.0278,0.016,0.0122,-0.0035,-0.0025,-0.0111,-0.0213,-0.021,-0.0185,0,0,0,0,0,0,0.0258,0.0325,0.0347,0.0421,0.0469,0.0546,0.0606,0.0635,0.0639,0.065,0.0563,0.0501,0.0334,0.043,0.0145,0.0109,0.0028,-0.0108,-0.0112,-0.0215,-0.0212,-0.0209,-0.0182,0,0,0,0,0]}]]